TimeEDT,TemperatureF,Dew PointF,Humidity,Sea Level PressureIn,VisibilityMPH,Wind Direction,Wind SpeedMPH,Gust SpeedMPH,PrecipitationIn,Events,Conditions,WindDirDegrees,DateUTC
12:54 AM,62.1,52.0,70,30.18,10.0,ESE,5.8,-,N/A,,Scattered Clouds,120,2013-05-27 04:54:00
1:54 AM,63.0,50.0,63,30.17,10.0,SE,6.9,-,N/A,,Clear,140,2013-05-27 05:54:00
2:54 AM,62.1,50.0,65,30.15,10.0,ESE,9.2,-,N/A,,Mostly Cloudy,110,2013-05-27 06:54:00
3:54 AM,62.1,51.1,67,30.15,10.0,ESE,9.2,-,N/A,,Scattered Clouds,120,2013-05-27 07:54:00
4:54 AM,62.1,50.0,65,30.14,10.0,ESE,9.2,-,N/A,,Overcast,120,2013-05-27 08:54:00
5:54 AM,61.0,50.0,67,30.15,10.0,ESE,8.1,-,N/A,,Scattered Clouds,110,2013-05-27 09:54:00
6:54 AM,60.1,50.0,69,30.16,10.0,ESE,8.1,-,N/A,,Scattered Clouds,120,2013-05-27 10:54:00
7:54 AM,61.0,51.1,70,30.16,10.0,SE,6.9,-,N/A,,Partly Cloudy,130,2013-05-27 11:54:00
8:54 AM,66.0,53.1,63,30.15,10.0,SSE,6.9,-,N/A,,Clear,160,2013-05-27 12:54:00
9:54 AM,71.1,55.9,59,30.14,10.0,South,6.9,-,N/A,,Clear,180,2013-05-27 13:54:00
10:54 AM,73.9,57.9,57,30.13,10.0,South,5.8,-,N/A,,Clear,190,2013-05-27 14:54:00
11:54 AM,77.0,60.1,56,30.12,10.0,Variable,6.9,-,N/A,,Clear,0,2013-05-27 15:54:00
12:54 PM,81.0,55.9,42,30.11,10.0,SSW,11.5,18.4,N/A,,Clear,210,2013-05-27 16:54:00
1:54 PM,82.0,55.0,39,30.08,10.0,SSW,12.7,-,N/A,,Clear,210,2013-05-27 17:54:00
2:54 PM,84.0,53.1,34,30.07,10.0,SW,11.5,20.7,N/A,,Clear,220,2013-05-27 18:54:00
3:54 PM,84.0,53.1,34,30.04,10.0,South,11.5,20.7,N/A,,Clear,190,2013-05-27 19:54:00
4:54 PM,84.0,55.0,37,30.03,10.0,SSW,17.3,21.9,N/A,,Clear,210,2013-05-27 20:54:00
5:54 PM,82.9,55.0,38,30.02,10.0,SSW,13.8,-,N/A,,Partly Cloudy,210,2013-05-27 21:54:00
6:54 PM,81.0,55.9,42,30.01,10.0,SSW,12.7,-,N/A,,Clear,210,2013-05-27 22:54:00
7:54 PM,78.1,57.9,50,30.02,10.0,SSW,8.1,-,N/A,,Clear,210,2013-05-27 23:54:00
8:54 PM,73.9,57.9,57,30.02,10.0,South,5.8,-,N/A,,Clear,180,2013-05-28 00:54:00
9:54 PM,72.0,57.0,59,30.01,10.0,South,8.1,-,N/A,,Clear,170,2013-05-28 01:54:00
10:54 PM,72.0,55.9,57,30.02,10.0,South,9.2,-,N/A,,Clear,180,2013-05-28 02:54:00
11:54 PM,72.0,57.0,59,30.03,10.0,South,8.1,-,N/A,,Overcast,180,2013-05-28 03:54:00